Radioactive Concentration measured by Seawater Radiation Monitor near Fukushima Daiichi Nuclear Power Station
Date,Time,Cs137(Bq/L),Cs134(Bq/L),Total β(Bq/L)
2017/02/27,00:00,1.2,0.14,9.3
2017/02/27,00:10,1.2,0.13,12
2017/02/27,00:20,1.2,0.13,13
2017/02/27,00:30,1.2,0.12,11
2017/02/27,00:40,1.2,0.12,11
2017/02/27,00:50,1.2,0.13,9.9
2017/02/27,01:00,1.2,0.13,ND
2017/02/27,01:10,1.2,0.13,ND
2017/02/27,01:20,1.2,0.13,10
2017/02/27,01:30,1.2,0.13,8.8
2017/02/27,01:40,1.2,0.14,ND
2017/02/27,01:50,1.2,0.13,ND
2017/02/27,02:00,1.2,0.13,ND
2017/02/27,02:10,1.2,0.14,ND
2017/02/27,02:20,1.2,0.15,ND
2017/02/27,02:30,1.2,0.15,ND
2017/02/27,02:40,1.2,0.15,ND
2017/02/27,02:50,1.2,0.16,ND
2017/02/27,03:00,1.1,0.16,ND
2017/02/27,03:10,1.2,0.14,ND
2017/02/27,03:20,1.1,0.14,ND
2017/02/27,03:30,1.1,0.13,ND
2017/02/27,03:40,1.1,0.13,ND
2017/02/27,03:50,1.1,0.13,ND
2017/02/27,04:00,1.1,0.13,ND
2017/02/27,04:10,1.2,0.14,ND
2017/02/27,04:20,1.2,0.13,ND
2017/02/27,04:30,1.2,0.13,ND
2017/02/27,04:40,1.2,0.13,ND
2017/02/27,04:50,1.2,0.13,ND
2017/02/27,05:00,1.2,0.12,ND
2017/02/27,05:10,1.1,0.14,ND
2017/02/27,05:20,1.1,0.14,ND
2017/02/27,05:30,1.1,0.14,ND
2017/02/27,05:40,1.1,0.14,ND
2017/02/27,05:50,1.1,0.15,ND
2017/02/27,06:00,1.1,0.15,ND
2017/02/27,06:10,1.1,0.14,ND
2017/02/27,06:20,1.1,0.14,9.3
2017/02/27,06:30,1.1,0.14,12
2017/02/27,06:40,1.1,0.13,14
2017/02/27,06:50,1.1,0.12,13
2017/02/27,07:00,1.1,0.12,10
2017/02/27,07:10,1.1,0.12,10
2017/02/27,07:20,1.1,0.13,10
2017/02/27,07:30,1.2,0.12,ND
2017/02/27,07:40,1.2,0.12,ND
2017/02/27,07:50,1.1,0.13,ND
2017/02/27,08:00,1.2,0.13,ND
2017/02/27,08:10,1.2,0.12,ND
2017/02/27,08:20,1.2,0.13,ND
2017/02/27,08:30,1.2,0.12,ND
2017/02/27,08:40,1.2,0.14,ND
2017/02/27,08:50,1.2,0.13,ND
2017/02/27,09:00,1.2,0.15,ND
2017/02/27,09:10,1.2,0.15,ND
2017/02/27,09:20,1.2,0.15,ND
2017/02/27,09:30,1.2,0.16,ND
2017/02/27,09:40,1.2,0.15,ND
2017/02/27,09:50,1.3,0.15,ND
2017/02/27,10:00,1.3,0.15,ND
2017/02/27,10:10,1.3,0.14,ND
2017/02/27,10:20,1.3,0.15,ND
2017/02/27,10:30,-,-,-
2017/02/27,10:40,-,-,-
2017/02/27,10:50,-,-,-
2017/02/27,11:00,-,-,-
2017/02/27,11:10,-,-,-
2017/02/27,11:20,-,-,-
2017/02/27,11:30,-,-,-
2017/02/27,11:40,-,-,-
2017/02/27,11:50,1.4,0.14,ND
2017/02/27,12:00,1.4,0.13,ND
2017/02/27,12:10,1.4,0.13,ND
2017/02/27,12:20,1.3,0.13,ND
2017/02/27,12:30,1.3,0.13,ND
2017/02/27,12:40,1.2,0.13,ND
2017/02/27,12:50,1.2,0.14,ND
2017/02/27,13:00,1.2,0.14,ND
2017/02/27,13:10,1.2,0.13,9.2
2017/02/27,13:20,1.1,0.13,11
2017/02/27,13:30,1.1,0.12,12
2017/02/27,13:40,1.1,0.12,11
2017/02/27,13:50,1.1,0.12,11
2017/02/27,14:00,1.1,0.11,10
2017/02/27,14:10,1.1,0.10,11
2017/02/27,14:20,1.1,0.11,ND
2017/02/27,14:30,1.1,0.11,ND
2017/02/27,14:40,1.1,0.12,ND
2017/02/27,14:50,1.1,0.12,ND
2017/02/27,15:00,1.1,0.12,ND
2017/02/27,15:10,1.1,0.13,ND
2017/02/27,15:20,1.1,0.13,ND
2017/02/27,15:30,1.1,0.13,ND
2017/02/27,15:40,1.1,0.13,8.8
2017/02/27,15:50,1.1,0.13,ND
2017/02/27,16:00,1.0,0.14,ND
2017/02/27,16:10,1.1,0.12,ND
2017/02/27,16:20,1.1,0.12,9.9
2017/02/27,16:30,1.1,0.13,10
2017/02/27,16:40,1.1,0.12,ND
2017/02/27,16:50,1.1,0.12,ND
2017/02/27,17:00,1.1,0.11,ND
2017/02/27,17:10,1.1,0.12,ND
2017/02/27,17:20,1.1,0.11,ND
2017/02/27,17:30,1.1,0.12,ND
2017/02/27,17:40,1.1,0.11,9.7
2017/02/27,17:50,1.1,0.11,ND
2017/02/27,18:00,1.1,0.11,ND
2017/02/27,18:10,1.1,0.12,ND
2017/02/27,18:20,1.2,0.14,ND
2017/02/27,18:30,1.2,0.14,ND
2017/02/27,18:40,1.2,0.14,ND
2017/02/27,18:50,1.2,0.15,ND
2017/02/27,19:00,1.2,0.14,ND
2017/02/27,19:10,1.2,0.14,ND
2017/02/27,19:20,1.2,0.13,ND
2017/02/27,19:30,1.2,0.13,ND
2017/02/27,19:40,1.3,0.13,ND
2017/02/27,19:50,1.3,0.13,ND
2017/02/27,20:00,1.2,0.14,ND
2017/02/27,20:10,1.3,0.14,ND
2017/02/27,20:20,1.2,0.15,ND
2017/02/27,20:30,1.3,0.14,ND
2017/02/27,20:40,1.2,0.14,ND
2017/02/27,20:50,1.3,0.14,8.9
2017/02/27,21:00,1.3,0.13,ND
2017/02/27,21:10,1.3,0.12,ND
2017/02/27,21:20,1.3,0.11,ND
2017/02/27,21:30,1.3,0.12,ND
2017/02/27,21:40,1.3,0.12,10
2017/02/27,21:50,1.2,0.12,ND
2017/02/27,22:00,1.2,0.13,ND
2017/02/27,22:10,1.2,0.14,ND
2017/02/27,22:20,1.2,0.14,ND
2017/02/27,22:30,1.2,0.13,ND
2017/02/27,22:40,1.2,0.13,ND
2017/02/27,22:50,1.2,0.13,ND
2017/02/27,23:00,1.2,0.12,ND
2017/02/27,23:10,1.2,0.12,ND
2017/02/27,23:20,1.2,0.11,ND
2017/02/27,23:30,1.2,0.11,ND
2017/02/27,23:40,1.1,0.098,ND
2017/02/27,23:50,1.1,0.10,ND
